Date String (YYYY-MM-DD hh:mm:ss) UTC,Instrument flags,Ambient pressure (hPa),Sample flow (lpm),Bypass flow (lpm),Sample temperature (°C),Ambient temperature (°C),ASC tube jacket temperature (°C),LED temperature (°C),Box temperature (°C),Sample RH (%),Span deviation,Mass concentration (μg/m³),Mass concentration (μg/m³),Mass concentration (μg/m³)
DateTimeUTC,F1_M11,P_M11,Q1_M11,Q2_M11,T1_M11,T2_M11,T3_M11,T4_M11,T5_M11,U1_M11,ZSPAN_M11,X0_M11,X2_M11,X1_M11
2022-09-10 05:00:00,,0829.8,5.00,0.00,29.6,27.8,00.0,38.4,31.3,26.8,0000.0,0002.53,0002.42,0002.38
2022-09-10 05:01:00,,0829.8,4.98,0.00,29.6,27.7,00.0,38.4,31.3,26.8,0000.0,0002.56,0002.40,0002.35
2022-09-10 05:02:00,,0829.8,5.00,0.00,29.5,27.7,00.0,38.4,31.3,26.8,0000.0,0002.51,0002.36,0002.32
2022-09-10 05:03:00,,0829.8,5.00,0.00,29.5,27.7,00.0,38.3,31.3,26.8,0000.0,0002.47,0002.34,0002.31
2022-09-10 05:04:00,,0829.8,4.99,0.00,29.5,27.8,00.0,38.3,31.3,26.8,0000.0,0002.46,0002.33,0002.30
2022-09-10 05:05:00,,0829.8,5.00,0.00,29.5,27.7,00.0,38.3,31.3,26.8,0000.0,0002.50,0002.36,0002.32
2022-09-10 05:06:00,,0829.9,5.00,0.00,29.5,27.7,00.0,38.3,31.3,26.8,0000.0,0002.59,0002.38,0002.32
2022-09-10 05:07:00,,0829.9,5.00,0.00,29.5,27.8,00.0,38.3,31.3,26.8,0000.0,0002.67,0002.39,0002.31
2022-09-10 05:08:00,,0829.9,5.00,0.00,29.5,27.8,00.0,38.3,31.3,26.7,0000.0,0002.67,0002.40,0002.32
2022-09-10 05:09:00,,0829.9,5.00,0.00,29.5,27.8,00.0,38.3,31.3,26.7,0000.0,0002.64,0002.39,0002.33
2022-09-10 05:10:00,,0829.9,5.00,0.00,29.5,27.8,00.0,38.3,31.3,26.7,0000.0,0002.65,0002.40,0002.33
2022-09-10 05:11:00,,0829.9,4.99,0.00,29.5,27.9,00.0,38.3,31.3,26.7,0000.0,0002.62,0002.42,0002.35
2022-09-10 05:12:00,,0829.9,5.00,0.00,29.5,27.9,00.0,38.3,31.3,27.7,0000.0,0002.62,0002.47,0002.41
2022-09-10 05:13:00,,0829.9,5.00,0.00,29.5,27.9,00.0,38.3,31.3,27.4,0000.0,0002.71,0002.55,0002.47
2022-09-10 05:14:00,,0829.9,4.99,0.00,29.5,27.9,00.0,38.3,31.3,26.9,0000.0,0002.77,0002.60,0002.53
2022-09-10 05:15:00,,0829.9,5.00,0.00,29.5,27.9,00.0,38.3,31.3,26.8,0000.0,0002.87,0002.67,0002.58
2022-09-10 05:16:00,,0829.9,5.00,0.00,29.5,27.9,00.0,38.3,31.3,26.7,0000.0,0002.91,0002.70,0002.61
2022-09-10 05:17:00,,0829.9,4.99,0.00,29.5,27.9,00.0,38.3,31.3,26.7,0000.0,0002.88,0002.71,0002.63
2022-09-10 05:18:00,,0829.9,5.01,0.00,29.5,27.9,00.0,38.3,31.3,26.7,0000.0,0002.79,0002.70,0002.65
2022-09-10 05:19:00,,0830.0,5.01,0.00,29.5,27.9,00.0,38.3,31.3,26.8,0000.0,0002.76,0002.67,0002.62
2022-09-10 05:20:00,,0830.0,5.01,0.00,29.5,27.9,00.0,38.3,31.3,26.8,0000.0,0002.71,0002.62,0002.56
2022-09-10 05:21:00,,0829.9,4.98,0.00,29.5,27.9,00.0,38.3,31.3,26.8,0000.0,0002.64,0002.55,0002.50
2022-09-10 05:22:00,,0829.9,5.00,0.00,29.5,27.9,00.0,38.3,31.3,26.8,0000.0,0002.59,0002.49,0002.43
2022-09-10 05:23:00,,0829.9,5.01,0.00,29.5,27.9,00.0,38.3,31.3,26.7,0000.0,0002.57,0002.45,0002.38
2022-09-10 05:24:00,,0830.0,4.99,0.00,29.5,28.0,00.0,38.3,31.3,26.6,0000.0,0002.51,0002.39,0002.34
2022-09-10 05:25:00,,0830.0,5.01,0.00,29.5,28.0,00.0,38.3,31.3,26.6,0000.0,0002.45,0002.33,0002.27
2022-09-10 05:26:00,,0830.1,5.00,0.00,29.5,27.9,00.0,38.3,31.3,26.5,0000.0,0002.35,0002.26,0002.21
2022-09-10 05:27:00,,0830.0,5.00,0.00,29.5,27.9,00.0,38.3,31.3,26.5,0000.0,0002.24,0002.19,0002.15
2022-09-10 05:28:00,,0830.0,4.99,0.00,29.6,27.9,00.0,38.3,31.4,26.5,0000.0,0002.21,0002.16,0002.12
2022-09-10 05:29:00,,0830.0,5.00,0.00,29.5,28.0,00.0,38.3,31.4,26.4,0000.0,0002.20,0002.15,0002.11
2022-09-10 05:30:00,,0830.1,5.00,0.00,29.5,27.9,00.0,38.3,31.3,26.4,0000.0,0002.24,0002.18,0002.15
2022-09-10 05:31:00,,0830.1,5.00,0.00,29.5,27.9,00.0,38.3,31.3,26.4,0000.0,0002.27,0002.21,0002.17
2022-09-10 05:32:00,,0830.1,5.00,0.00,29.5,28.0,00.0,38.3,31.3,26.4,0000.0,0002.30,0002.23,0002.19
2022-09-10 05:33:00,,0830.1,5.00,0.00,29.5,28.0,00.0,38.3,31.3,26.4,0000.0,0002.32,0002.25,0002.20
2022-09-10 05:34:00,,0830.1,4.99,0.00,29.5,28.0,00.0,38.3,31.4,26.3,0000.0,0002.28,0002.23,0002.20
2022-09-10 05:35:00,,0830.0,5.00,0.00,29.5,27.9,00.0,38.3,31.3,26.4,0000.0,0002.25,0002.21,0002.19
2022-09-10 05:36:00,,0830.1,5.00,0.00,29.5,28.0,00.0,38.3,31.3,26.3,0000.0,0002.27,0002.22,0002.19
2022-09-10 05:37:00,,0830.1,4.99,0.00,29.6,28.0,00.0,38.3,31.3,26.3,0000.0,0002.33,0002.25,0002.21
2022-09-10 05:38:00,,0830.1,5.00,0.00,29.6,28.0,00.0,38.3,31.4,26.3,0000.0,0002.36,0002.27,0002.23
2022-09-10 05:39:00,,0830.1,5.01,0.00,29.5,27.9,00.0,38.3,31.3,26.3,0000.0,0002.38,0002.28,0002.24
2022-09-10 05:40:00,,0830.1,5.00,0.00,29.6,27.9,00.0,38.3,31.3,26.3,0000.0,0002.40,0002.28,0002.23
2022-09-10 05:41:00,,0830.1,5.00,0.00,29.6,28.0,00.0,38.3,31.3,26.3,0000.0,0002.40,0002.26,0002.21
2022-09-10 05:42:00,,0830.1,4.99,0.00,29.6,27.9,00.0,38.3,31.4,26.2,0000.0,0002.40,0002.26,0002.20
2022-09-10 05:43:00,,0830.0,5.00,0.00,29.5,27.9,00.0,38.3,31.4,26.2,0000.0,0002.40,0002.25,0002.19
2022-09-10 05:44:00,,0830.0,5.00,0.00,29.5,28.0,00.0,38.3,31.3,26.3,0000.0,0002.39,0002.25,0002.20
2022-09-10 05:45:00,,0830.1,5.00,0.00,29.5,27.9,00.0,38.3,31.3,26.2,0000.0,0002.37,0002.23,0002.18
2022-09-10 05:46:00,,0830.0,4.98,0.00,29.5,27.9,00.0,38.3,31.3,26.2,0000.0,0002.39,0002.24,0002.18
2022-09-10 05:47:00,,0830.0,5.01,0.00,29.5,27.9,00.0,38.3,31.3,26.2,0000.0,0002.40,0002.26,0002.21
2022-09-10 05:48:00,,0830.1,5.00,0.00,29.5,27.9,00.0,38.3,31.3,26.2,0000.0,0002.38,0002.27,0002.23
2022-09-10 05:49:00,,0830.1,5.00,0.00,29.5,27.9,00.0,38.3,31.3,26.2,0000.0,0002.42,0002.29,0002.24
2022-09-10 05:50:00,,0830.0,5.00,0.00,29.5,28.0,00.0,38.3,31.3,26.1,0000.0,0002.46,0002.30,0002.25
2022-09-10 05:51:00,,0830.1,5.00,0.00,29.5,28.0,00.0,38.3,31.3,26.1,0000.0,0002.45,0002.31,0002.27
2022-09-10 05:52:00,,0830.1,4.98,0.00,29.6,28.0,00.0,38.3,31.4,26.1,0000.0,0002.46,0002.33,0002.29
2022-09-10 05:53:00,,0830.0,5.01,0.00,29.5,27.9,00.0,38.3,31.4,26.2,0000.0,0002.51,0002.38,0002.33
2022-09-10 05:54:00,,0830.1,5.00,0.00,29.5,27.9,00.0,38.3,31.3,27.2,0000.0,0002.54,0002.42,0002.38
2022-09-10 05:55:00,,0830.1,5.00,0.00,29.5,27.8,00.0,38.3,31.3,26.7,0000.0,0002.58,0002.47,0002.42
2022-09-10 05:56:00,,0830.2,4.99,0.00,29.5,27.9,00.0,38.3,31.3,26.3,0000.0,0002.65,0002.52,0002.47
2022-09-10 05:57:00,,0830.1,5.00,0.00,29.5,27.9,00.0,38.3,31.3,26.2,0000.0,0002.67,0002.55,0002.50
2022-09-10 05:58:00,,0830.2,5.01,0.00,29.5,27.9,00.0,38.3,31.3,26.2,0000.0,0002.68,0002.56,0002.51
2022-09-10 05:59:00,,0830.2,5.00,0.00,29.5,27.8,00.0,38.3,31.3,26.2,0000.0,0002.71,0002.57,0002.52
